VK2HIM-1 Weather Reports


time (UTC)temp
C
wind
direction
speed
KPH
gust
KPH
rain 1hr
cm
rain 24hr
cm
rain mn
cm
humidity
%
barometer
mb
20260505100347 13 259 0.0 0.0 0.00 0.00 0.00 82 1020.8
20260505093347 13 259 0.0 0.0 0.00 0.00 0.00 83 1020.5
20260505090347 13 90 0.0 0.0 0.00 0.00 0.00 83 1020.2
20260505083347 14 90 0.0 0.0 0.00 0.00 0.00 81 1019.7
20260505080347 15 90 0.0 0.0 0.00 0.00 0.00 78 1019.2
20260505073347 16 90 0.0 0.0 0.00 0.00 0.00 75 1018.8
20260505070347 19 90 0.0 0.0 0.00 0.00 0.00 66 1018.3
20260505063350 21 90 0.0 0.0 0.00 0.00 0.00 62 1017.9
20260505060350 23 131 1.6 4.8 0.00 0.00 0.00 59 1017.5
20260505053350 23 90 1.6 3.2 0.00 0.00 0.00 57 1017.1
20260505050350 24 82 0.0 3.2 0.00 0.00 0.00 54 1016.8
20260505040349 22 261 3.2 9.7 0.00 0.00 0.00 53 1016.6
20260505033349 22 256 4.8 11.3 0.00 0.00 0.00 55 1016.6
20260505030348 22 224 4.8 8.0 0.00 0.00 0.00 54 1016.7
20260505023348 22 254 11.3 19.3 0.00 0.00 0.00 56 1016.8
20260505020348 21 232 4.8 12.9 0.00 0.00 0.00 58 1017.3
20260505013348 21 260 12.9 19.3 0.00 0.00 0.00 63 1017.7
20260505010348 20 261 9.7 16.1 0.00 0.00 0.00 61 1017.9
20260505003347 20 283 12.9 19.3 0.00 0.00 0.00 65 1018.1
20260505000347 19 216 3.2 4.8 0.00 0.00 0.00 67 1018.1
20260504233347 18 263 11.3 16.1 0.00 0.00 0.00 69 1018.1
20260504230347 17 253 19.3 20.9 0.00 0.00 0.00 70 1018.1
20260504223346 16 250 11.3 19.3 0.00 0.00 0.00 73 1017.9
20260504220346 16 260 24.1 32.2 0.00 0.00 0.00 73 1017.4
20260504213346 15 252 16.1 27.4 0.00 0.00 0.00 74 1016.7
20260504210346 15 217 8.0 4.8 0.00 0.00 0.00 73 1016.6
20260504203346 15 252 20.9 32.2 0.00 0.00 0.00 74 1015.8
20260504200345 13 257 16.1 25.7 0.00 0.00 0.00 79 1015.7
20260504193348 13 220 4.8 4.8 0.00 0.00 0.00 78 1015.8
20260504190348 13 207 3.2 4.8 0.00 0.00 0.00 77 1015.9
20260504183348 13 239 4.8 8.0 0.00 0.00 0.00 78 1016.0
20260504180348 13 242 4.8 4.8 0.00 0.00 0.00 78 1015.6
20260504173348 13 245 3.2 8.0 0.00 0.00 0.00 79 1015.7
20260504170348 14 264 20.9 29.0 0.00 0.00 0.00 78 1015.5
20260504160348 15 259 20.9 27.4 0.00 0.00 0.00 80 1015.7
20260504150348 15 268 12.9 19.3 0.00 0.00 0.00 78 1015.8
20260504140348 15 266 19.3 25.7 0.00 0.00 0.00 82 1015.8
20260504130349 16 236 8.0 12.9 0.00 0.00 0.00 86 1015.8
20260504110349 16 235 3.2 4.8 0.00 0.00 0.00 92 1016.3